Location: Byszew
(52.1813°N, 19.2693°E)
Time: 13:22:35
(UTC+00:00)

ERS-2 - Pass Details

Date: 03 March 2021
Orbit: 492 x 496 km, 98.6° (Epoch: 13 April)

Event Time Altitude Azimuth Distance (km) Brightness Sun altitude
Rises 18:20:49 0° 9° (N) 2,597 5.8 -18.3°
Reaches altitude 10° 18:22:58 10° 2° (N) 1,709 5.0 -18.6°
Maximum altitude 18:26:25 39° 293° (WNW) 757 3.6 -19.1°
Drops below altitude 10° 18:29:50 10° 223° (SW) 1,697 5.2 -19.6°
Sets 18:31:59 0° 216° (SW) 2,576 6.0 -19.9°
